Wind_Speed
11 8 7 7 8 10 10 9 10 12 14 18 16 15 16 16 15 15 15 15 16 17 18 19 20 21 22 22 23 25 25 26 28 29 30 31 32 33 34 34 34 34 34 34
10 9 8 8 10 11 11 11 12 13 16 19 16 16 17 16 15 15 15 16 17 17 18 20 21 21 22 23 24 25 26 28 29 31 32 33 33 34 35 35 35 35 35 35
10 10 11 11 11 11 11 13 13 14 17 18 17 16 16 16 16 15 16 16 17 18 19 20 21 22 22 24 25 26 27 29 30 32 33 34 35 35 36 36 37 36 36 35
12 12 12 10 10 11 12 13 15 16 17 18 17 17 16 16 16 16 16 17 18 18 19 20 21 22 23 24 26 27 29 30 31 33 34 35 36 36 37 37 37 37 36 36
14 14 12 12 13 14 13 13 15 16 17 17 17 17 16 15 16 16 16 18 18 19 20 21 22 23 24 26 27 28 30 31 32 34 35 36 37 37 38 38 38 37 37 37
15 15 15 14 15 15 15 16 16 17 17 16 16 17 17 16 16 17 17 18 19 20 21 21 22 24 25 26 28 29 30 32 33 35 36 37 38 39 39 39 38 38 38 38
16 16 16 17 16 16 16 17 17 18 18 17 17 18 18 18 17 18 18 19 20 21 21 22 23 24 25 27 28 29 30 33 35 36 37 38 39 39 40 39 39 39 39 38
17 17 19 21 19 20 20 18 17 19 20 20 19 18 18 18 18 18 19 20 21 21 22 23 24 25 26 28 29 30 32 33 36 37 38 39 40 41 40 40 39 39 39 38
22 21 20 20 22 22 21 19 19 20 21 20 20 19 19 19 19 20 21 21 22 22 23 24 25 26 28 29 31 32 34 35 36 37 38 40 41 41 40 40 40 39 39 38
24 25 24 20 17 20 21 21 20 21 21 21 21 21 21 20 20 21 22 22 23 24 25 26 27 28 29 30 32 33 35 35 37 38 40 41 42 42 41 40 40 40 39 38
23 25 24 20 21 22 23 22 21 21 21 22 22 22 23 23 22 23 23 24 24 25 26 27 28 29 31 32 33 34 35 36 37 39 41 41 41 42 41 40 40 40 39 38
27 26 25 25 24 23 23 22 22 22 23 23 23 24 25 24 24 24 25 25 26 27 28 29 30 31 33 34 35 35 36 38 39 40 41 42 42 42 41 40 40 39 38 37
28 27 26 25 25 23 23 24 24 24 24 25 25 25 26 26 26 26 27 28 28 29 29 30 32 33 35 35 36 37 38 39 40 41 41 42 42 42 41 40 40 39 37 36
27 27 26 26 26 25 25 26 26 26 26 26 26 26 27 28 28 29 29 30 30 32 33 34 35 36 37 37 37 38 39 40 41 41 42 42 42 42 42 40 39 38 37 35
27 28 28 27 26 27 27 27 28 28 28 28 28 28 28 30 31 32 32 33 33 34 35 37 38 38 38 38 38 40 40 41 42 42 42 42 42 42 41 40 38 37 36 35
28 28 28 28 28 28 29 29 29 30 31 31 31 31 31 32 33 34 35 36 36 37 38 39 39 40 40 39 40 41 41 42 43 43 43 43 43 42 41 39 37 36 35 34
29 29 29 30 30 30 30 30 31 32 32 33 33 33 34 34 35 36 37 38 39 40 41 41 41 41 41 41 42 42 43 43 43 43 43 43 42 42 40 38 37 36 35 33
31 31 31 31 31 31 31 32 33 33 33 34 35 35 35 36 37 38 38 39 40 40 41 41 41 42 42 43 43 43 44 44 45 44 43 42 42 41 39 37 36 34 33 31
31 31 32 32 32 32 33 33 34 35 35 36 36 36 37 38 39 40 40 41 41 42 42 42 44 45 44 44 44 45 45 45 45 44 43 42 41 40 38 36 35 33 31 30
32 32 33 33 34 34 35 35 35 36 36 37 37 38 40 40 41 41 42 43 43 44 44 45 46 46 46 46 46 46 47 46 45 44 43 42 41 39 37 35 33 32 30 29
33 34 34 35 35 36 36 37 37 38 38 39 40 40 41 42 43 44 44 45 46 46 46 46 47 47 48 48 48 47 47 47 45 44 42 41 40 38 35 34 32 30 29 28
34 35 36 36 36 37 37 38 39 39 40 41 41 43 43 44 45 46 46 47 48 47 47 48 48 49 49 49 49 48 47 47 45 43 42 40 38 36 34 32 30 28 27 26
35 36 36 37 37 38 39 40 41 41 42 43 44 45 45 46 46 47 48 49 49 50 50 50 50 50 50 50 49 48 47 46 44 42 40 38 36 34 32 31 28 27 25 24
37 38 38 39 40 41 41 42 43 44 45 45 46 47 47 48 49 49 50 50 51 51 51 51 51 51 50 50 49 47 46 44 42 40 38 36 34 33 31 30 27 26 24 23
39 39 40 41 41 42 43 44 45 46 46 47 48 49 50 50 51 51 52 52 52 52 52 52 51 50 49 48 47 46 44 42 40 38 36 35 33 32 30 28 26 24 22 21
41 41 42 43 44 44 45 46 47 48 49 49 50 50 51 51 52 52 53 53 52 52 52 52 50 49 48 47 46 44 42 40 38 37 35 34 32 30 28 27 25 23 21 20
42 43 44 45 46 46 46 47 48 48 49 49 50 50 51 51 51 52 52 51 51 51 50 49 49 48 47 46 44 43 40 38 37 35 33 31 29 27 26 24 23 21 20 19
Wind_Direction
259 265 276 285 274 271 270 267 270 281 290 292 297 302 307 311 311 313 316 321 325 327 329 331 333 334 335 335 335 336 336 336 336 336 335 334 333 332 330 328 326 324 322 320
259 258 263 267 264 262 258 261 262 267 275 280 291 297 301 305 307 311 315 320 324 327 329 331 333 334 334 334 335 335 336 336 336 336 336 335 334 333 331 329 327 325 324 321
253 245 248 247 251 257 257 259 262 265 269 280 289 294 298 301 305 309 313 317 322 326 328 330 331 332 333 334 335 335 335 335 335 335 335 335 334 333 331 330 328 326 324 323
253 245 247 250 255 259 263 262 263 267 272 280 288 293 296 300 303 307 311 316 320 324 325 327 329 330 332 333 334 334 335 335 334 334 334 334 334 333 332 331 330 328 327 325
254 248 251 249 246 254 263 265 267 270 274 281 288 293 296 300 303 308 311 315 318 321 323 324 326 327 329 331 332 333 334 335 334 334 333 334 334 334 333 332 331 330 328 327
255 252 252 257 256 254 264 270 271 275 279 282 288 294 298 301 304 306 309 313 315 318 320 322 323 326 327 329 331 332 333 334 334 334 333 334 334 334 334 333 332 331 330 328
260 253 251 253 257 262 261 264 271 275 280 285 289 293 298 301 303 304 306 309 311 314 317 320 322 324 325 327 329 331 332 333 334 333 334 334 334 334 334 333 333 332 331 329
259 247 245 250 253 255 259 265 272 276 280 283 286 290 293 296 299 302 304 306 309 312 314 318 320 321 323 325 327 328 330 331 333 333 334 334 334 334 334 334 333 333 332 331
259 253 247 245 249 256 265 267 272 276 278 283 285 288 291 294 296 299 303 305 307 309 311 315 318 321 323 323 324 326 329 330 331 333 333 334 335 334 333 333 334 333 333 332
263 264 260 252 254 266 272 276 277 276 277 280 284 287 289 291 295 298 301 303 305 306 309 313 315 318 320 321 323 325 328 329 330 332 333 333 334 334 334 334 334 334 334 333
261 264 266 264 264 269 273 274 276 276 277 279 282 284 288 291 294 297 299 302 305 306 308 311 313 316 318 319 320 322 325 326 328 330 331 332 333 334 335 334 334 334 334 333
260 262 265 265 265 267 270 271 274 275 276 278 280 282 285 289 292 295 297 300 304 305 306 308 311 313 315 317 319 321 323 325 327 328 329 331 332 333 334 334 334 334 334 333
261 265 265 265 265 266 268 272 274 275 278 279 281 283 286 289 291 293 295 298 301 303 306 308 310 314 316 317 318 320 322 323 325 326 328 329 330 331 332 333 333 333 333 334
259 263 264 264 264 266 269 272 274 275 277 279 280 282 285 288 290 292 294 297 299 302 304 306 308 311 313 315 317 318 319 321 323 324 325 327 328 329 330 331 331 332 332 334
261 263 265 264 265 267 269 270 272 274 276 277 279 281 283 286 289 291 293 295 297 299 302 304 306 308 311 312 315 317 318 320 321 322 323 324 326 326 327 328 328 329 330 332
263 264 265 266 267 268 269 271 272 274 277 278 280 282 283 286 288 291 294 295 296 299 301 304 306 307 308 310 313 314 315 316 319 320 321 322 323 324 325 325 326 326 327 329
263 263 264 266 268 269 270 271 272 273 276 278 280 281 283 285 288 290 293 295 297 299 300 301 304 306 306 308 309 311 312 314 315 316 317 319 320 321 322 322 323 324 325 326
263 264 266 267 269 270 271 272 273 275 277 279 281 282 284 286 289 290 293 295 296 297 299 301 302 304 306 306 308 309 310 312 313 314 315 316 317 318 319 319 320 322 322 323
264 265 267 269 271 272 273 274 275 277 279 280 282 284 286 287 289 291 292 294 295 296 298 299 301 302 303 305 306 308 309 310 311 311 312 313 314 315 316 315 316 318 320 321
265 267 269 271 273 274 275 276 277 279 281 282 283 285 286 288 289 290 292 293 294 296 297 299 300 300 301 303 304 305 306 307 308 308 308 309 310 311 312 312 313 315 316 317
268 270 272 273 274 275 277 278 280 281 282 283 284 286 287 288 289 290 291 292 293 295 297 298 298 299 300 301 302 303 304 305 305 306 306 306 307 307 308 308 310 311 312 313
271 272 273 274 275 276 278 279 280 281 282 283 285 286 288 289 290 291 291 292 294 295 296 296 297 298 299 300 301 302 303 303 303 303 303 303 303 303 303 305 306 307 308 309
273 274 275 276 277 277 278 280 281 282 283 285 286 287 288 289 290 291 292 293 294 295 295 296 297 297 298 299 300 301 301 300 300 300 299 299 299 298 297 298 300 300 303 306
274 275 275 276 277 279 280 281 282 284 285 286 287 288 289 290 290 291 292 293 294 295 295 296 297 297 297 297 298 298 298 298 297 297 296 295 294 293 292 293 294 295 297 299
277 277 277 277 278 280 282 283 284 285 286 287 288 289 290 291 291 292 293 293 294 295 295 295 296 296 295 295 296 296 295 295 294 293 292 291 289 289 288 287 288 289 292 294
277 278 279 280 281 282 284 285 286 287 288 288 289 290 291 292 292 292 293 293 294 294 295 295 295 294 294 294 294 293 293 292 291 290 288 287 285 285 284 282 283 284 285 286
279 280 281 282 283 284 285 286 287 288 288 289 290 291 291 292 292 293 293 294 294 294 294 295 295 294 293 293 293 292 291 290 289 287 285 283 280 278 279 278 278 278 278 280
Height
5847 5847 5848 5849 5850 5851 5850 5850 5850 5849 5847 5845 5845 5844 5843 5842 5840 5839 5837 5835 5833 5831 5829 5826 5823 5820 5816 5813 5809 5805 5801 5797 5792 5787 5782 5777 5771 5766 5760 5754 5748 5743 5737 5731
5844 5844 5845 5846 5848 5848 5848 5848 5848 5848 5846 5843 5842 5842 5841 5839 5838 5836 5834 5833 5831 5828 5826 5823 5820 5817 5813 5810 5806 5802 5797 5793 5788 5783 5777 5772 5766 5760 5754 5748 5742 5735 5729 5723
5841 5841 5842 5843 5845 5845 5845 5845 5845 5844 5843 5840 5840 5839 5838 5837 5835 5833 5832 5830 5828 5825 5823 5820 5817 5814 5810 5806 5802 5798 5794 5789 5784 5778 5773 5767 5760 5754 5748 5741 5735 5728 5722 5716
5837 5838 5839 5841 5840 5841 5841 5841 5841 5840 5838 5837 5837 5836 5835 5833 5832 5830 5829 5827 5825 5822 5820 5817 5814 5810 5807 5803 5799 5794 5790 5785 5779 5774 5768 5761 5755 5748 5742 5735 5728 5722 5715 5709
5833 5834 5834 5835 5835 5836 5837 5837 5837 5836 5834 5834 5833 5832 5831 5830 5829 5827 5826 5823 5821 5819 5816 5813 5810 5807 5803 5799 5795 5790 5786 5780 5775 5769 5763 5756 5749 5743 5736 5729 5722 5715 5708 5702
5829 5830 5830 5831 5830 5831 5833 5832 5832 5831 5831 5830 5829 5828 5828 5826 5825 5823 5822 5820 5818 5815 5813 5810 5806 5803 5799 5795 5791 5786 5781 5776 5770 5764 5757 5751 5744 5737 5730 5722 5715 5708 5702 5695
5825 5825 5826 5826 5826 5827 5829 5828 5828 5827 5826 5826 5825 5825 5824 5822 5821 5819 5818 5816 5814 5811 5809 5806 5802 5799 5795 5791 5786 5781 5776 5771 5765 5758 5752 5745 5738 5731 5724 5717 5709 5702 5695 5688
5820 5820 5823 5821 5823 5822 5822 5822 5822 5822 5822 5821 5821 5820 5819 5818 5816 5815 5813 5811 5809 5807 5804 5801 5798 5794 5790 5786 5781 5776 5771 5765 5760 5753 5746 5739 5732 5725 5717 5710 5703 5696 5689 5682
5815 5815 5813 5813 5816 5816 5815 5816 5817 5818 5817 5816 5816 5815 5814 5813 5812 5810 5808 5806 5804 5802 5799 5796 5792 5789 5785 5780 5776 5771 5765 5760 5754 5747 5741 5733 5726 5719 5712 5704 5697 5690 5683 5676
5808 5807 5806 5806 5807 5810 5811 5812 5812 5812 5812 5811 5810 5810 5809 5808 5807 5805 5803 5801 5799 5796 5793 5790 5787 5783 5779 5774 5770 5765 5759 5754 5748 5741 5735 5728 5720 5713 5705 5698 5691 5684 5676 5669
5803 5802 5802 5801 5804 5805 5806 5806 5806 5806 5806 5806 5805 5804 5803 5802 5801 5799 5797 5795 5793 5790 5787 5784 5781 5777 5773 5768 5764 5758 5753 5748 5742 5735 5729 5722 5714 5707 5700 5692 5685 5678 5671 5664
5797 5798 5799 5799 5799 5799 5800 5800 5801 5801 5800 5800 5799 5798 5797 5796 5795 5793 5791 5789 5786 5784 5781 5778 5774 5770 5766 5762 5757 5752 5746 5741 5735 5729 5722 5715 5708 5701 5694 5687 5680 5672 5665 5659
5791 5792 5793 5793 5794 5793 5794 5794 5794 5794 5793 5793 5792 5791 5790 5789 5788 5786 5784 5782 5780 5777 5774 5771 5767 5763 5759 5754 5750 5745 5739 5734 5728 5722 5715 5709 5702 5695 5688 5682 5674 5667 5661 5654
5785 5785 5786 5787 5787 5787 5787 5788 5787 5787 5786 5786 5785 5784 5783 5782 5780 5779 5777 5775 5772 5769 5766 5763 5759 5755 5751 5747 5742 5737 5732 5726 5720 5714 5708 5702 5695 5688 5682 5675 5669 5662 5656 5650
5778 5778 5779 5779 5780 5780 5780 5780 5780 5780 5779 5778 5778 5777 5776 5774 5772 5771 5769 5766 5764 5761 5758 5755 5751 5747 5743 5738 5734 5729 5724 5718 5713 5707 5700 5694 5688 5682 5675 5669 5662 5657 5651 5645
5770 5771 5771 5772 5772 5773 5773 5773 5772 5772 5771 5770 5769 5769 5768 5766 5764 5762 5760 5758 5755 5752 5749 5745 5742 5738 5734 5730 5725 5721 5716 5710 5705 5699 5693 5687 5681 5675 5669 5662 5656 5651 5645 5640
5762 5763 5764 5764 5764 5765 5765 5764 5764 5763 5762 5762 5761 5760 5759 5757 5755 5753 5751 5748 5745 5742 5739 5736 5732 5728 5724 5720 5716 5711 5706 5701 5696 5691 5685 5679 5673 5667 5661 5656 5650 5645 5640 5634
5754 5755 5755 5756 5756 5756 5756 5755 5755 5754 5753 5753 5752 5750 5749 5747 5745 5743 5741 5738 5735 5732 5729 5726 5722 5718 5715 5710 5706 5701 5696 5691 5686 5681 5676 5670 5665 5659 5654 5649 5644 5639 5634 5629
5746 5746 5746 5747 5747 5747 5747 5746 5746 5745 5744 5743 5742 5740 5739 5737 5735 5733 5730 5727 5724 5721 5719 5715 5711 5708 5704 5700 5695 5691 5686 5681 5676 5671 5666 5661 5656 5652 5647 5642 5637 5632 5628 5623
5737 5737 5737 5738 5737 5737 5737 5736 5736 5735 5734 5733 5732 5730 5728 5726 5724 5721 5719 5716 5713 5710 5707 5704 5700 5696 5692 5688 5684 5680 5675 5671 5666 5661 5656 5652 5647 5643 5639 5634 5630 5626 5622 5617
5728 5728 5728 5728 5728 5727 5727 5726 5726 5725 5723 5722 5720 5719 5717 5715 5712 5710 5707 5704 5701 5698 5695 5691 5687 5683 5680 5676 5672 5667 5663 5659 5654 5650 5646 5642 5638 5634 5630 5626 5623 5619 5616 5612
5718 5718 5718 5718 5717 5717 5716 5715 5714 5713 5712 5710 5709 5706 5704 5702 5700 5697 5694 5690 5688 5685 5682 5678 5674 5670 5666 5662 5658 5654 5650 5646 5642 5638 5635 5631 5628 5625 5621 5618 5615 5613 5609 5606
5708 5708 5708 5707 5707 5706 5705 5704 5702 5701 5699 5698 5696 5694 5691 5689 5686 5683 5680 5677 5674 5671 5667 5664 5660 5657 5653 5649 5645 5641 5637 5633 5630 5627 5623 5620 5618 5615 5613 5610 5608 5606 5603 5600
5698 5698 5697 5696 5696 5694 5693 5692 5690 5688 5687 5684 5682 5680 5678 5675 5672 5669 5666 5662 5659 5656 5653 5649 5646 5642 5638 5634 5631 5627 5624 5621 5618 5615 5612 5609 5607 5605 5603 5601 5600 5598 5596 5594
5687 5686 5685 5684 5683 5682 5680 5679 5677 5675 5673 5671 5668 5665 5663 5660 5657 5654 5651 5647 5644 5640 5637 5634 5630 5627 5623 5619 5616 5613 5610 5608 5605 5603 5601 5599 5597 5595 5594 5593 5591 5590 5589 5587
5675 5674 5673 5672 5670 5669 5667 5665 5663 5661 5658 5656 5653 5651 5648 5645 5641 5638 5635 5631 5628 5624 5621 5617 5614 5611 5608 5605 5602 5599 5596 5594 5592 5591 5589 5587 5586 5585 5584 5583 5583 5583 5582 5581
5662 5661 5659 5658 5657 5655 5653 5651 5649 5646 5644 5641 5639 5636 5633 5629 5626 5622 5619 5615 5612 5608 5605 5602 5598 5595 5592 5589 5587 5585 5582 5580 5579 5578 5577 5576 5575 5575 5575 5575 5575 5575 5574 5574